Year,Month,Day,Hour,Minute,Value (Times are PST for temperature in C)
2022,01,31,00,00,-33.30
2022,01,31,00,01,-33.30
2022,01,31,00,02,-33.30
2022,01,31,00,03,-33.30
2022,01,31,00,04,-33.40
2022,01,31,00,05,-33.40
2022,01,31,00,06,-33.40
2022,01,31,00,07,-33.40
2022,01,31,00,08,-33.40
2022,01,31,00,09,-33.50
2022,01,31,00,10,-33.50
2022,01,31,00,11,-33.50
2022,01,31,00,12,-33.50
2022,01,31,00,13,-33.60
2022,01,31,00,14,-33.60
2022,01,31,00,15,-33.60
2022,01,31,00,16,-33.60
2022,01,31,00,17,-33.60
2022,01,31,00,18,-33.60
2022,01,31,00,19,-33.60
2022,01,31,00,20,-33.60
2022,01,31,00,21,-33.70
2022,01,31,00,22,-33.70
2022,01,31,00,23,-33.70
2022,01,31,00,24,-33.70
2022,01,31,00,25,-33.70
2022,01,31,00,26,-33.70
2022,01,31,00,27,-33.70
2022,01,31,00,28,-33.70
2022,01,31,00,29,-33.70
2022,01,31,00,30,-33.70
2022,01,31,00,31,-33.70
2022,01,31,00,32,-33.80
2022,01,31,00,33,-33.80
2022,01,31,00,34,-33.80
2022,01,31,00,35,-33.80
2022,01,31,00,36,-33.80
2022,01,31,00,37,-33.80
2022,01,31,00,38,-33.80
2022,01,31,00,39,-33.80
2022,01,31,00,40,-33.80
2022,01,31,00,41,-33.80
2022,01,31,00,42,-33.80
2022,01,31,00,43,-33.80
2022,01,31,00,44,-33.80
2022,01,31,00,45,-33.80
2022,01,31,00,46,-33.70
2022,01,31,00,47,-33.70
2022,01,31,00,48,-33.70
2022,01,31,00,49,-33.70
2022,01,31,00,50,-33.70
2022,01,31,00,51,-33.70
2022,01,31,00,52,-33.70
2022,01,31,00,53,-33.70
2022,01,31,00,54,-33.60
2022,01,31,00,55,-33.60
2022,01,31,00,56,-33.60
2022,01,31,00,57,-33.60
2022,01,31,00,58,-33.70
2022,01,31,00,59,-33.80
2022,01,31,01,00,-33.80
2022,01,31,01,01,-33.80
2022,01,31,01,02,-33.80
2022,01,31,01,03,-33.90
2022,01,31,01,04,-33.90
2022,01,31,01,05,-33.90
2022,01,31,01,06,-33.90
2022,01,31,01,07,-34.00
2022,01,31,01,08,-34.00
2022,01,31,01,09,-34.00
2022,01,31,01,10,-34.00
2022,01,31,01,11,-34.10
2022,01,31,01,12,-34.10
2022,01,31,01,13,-34.10
2022,01,31,01,14,-34.10
2022,01,31,01,15,-34.20
2022,01,31,01,16,-34.20
2022,01,31,01,17,-34.20
2022,01,31,01,18,-34.20
2022,01,31,01,19,-34.20
2022,01,31,01,20,-34.30
2022,01,31,01,21,-34.30
2022,01,31,01,22,-34.30
2022,01,31,01,23,-34.30
2022,01,31,01,24,-34.30
2022,01,31,01,25,-34.30
2022,01,31,01,26,-34.30
2022,01,31,01,27,-34.30
2022,01,31,01,28,-34.40
2022,01,31,01,29,-34.40
2022,01,31,01,30,-34.40
2022,01,31,01,31,-34.30
2022,01,31,01,32,-34.30
2022,01,31,01,33,-34.30
2022,01,31,01,34,-34.30
2022,01,31,01,35,-34.20
2022,01,31,01,36,-34.20
2022,01,31,01,37,-34.20
2022,01,31,01,38,-34.20
2022,01,31,01,39,-34.20
2022,01,31,01,40,-34.20
2022,01,31,01,41,-34.30
2022,01,31,01,42,-34.20
2022,01,31,01,43,-34.30
2022,01,31,01,44,-34.30
2022,01,31,01,45,-34.30
2022,01,31,01,46,-34.30
2022,01,31,01,47,-34.30
2022,01,31,01,48,-34.30
2022,01,31,01,49,-34.30
2022,01,31,01,50,-34.40
2022,01,31,01,51,-34.40
2022,01,31,01,52,-34.40
2022,01,31,01,53,-34.40
2022,01,31,01,54,-34.40
2022,01,31,01,55,-34.50
2022,01,31,01,56,-34.50
2022,01,31,01,57,-34.50
2022,01,31,01,58,-34.60
2022,01,31,01,59,-34.60
2022,01,31,02,00,-34.60
2022,01,31,02,01,-34.60
2022,01,31,02,02,-34.60
2022,01,31,02,03,-34.70
2022,01,31,02,04,-34.70
2022,01,31,02,05,-34.70
2022,01,31,02,06,-34.70
2022,01,31,02,07,-34.70
2022,01,31,02,08,-34.70
2022,01,31,02,09,-34.70
2022,01,31,02,10,-34.70
2022,01,31,02,11,-34.70
2022,01,31,02,12,-34.70
2022,01,31,02,13,-34.70
2022,01,31,02,14,-34.70
2022,01,31,02,15,-34.70
2022,01,31,02,16,-34.70
2022,01,31,03,07,-34.90
2022,01,31,03,08,-34.90
2022,01,31,03,09,-34.90
2022,01,31,03,10,-34.90
2022,01,31,03,11,-34.90
2022,01,31,03,12,-34.90
2022,01,31,03,13,-34.90
2022,01,31,03,14,-34.90
2022,01,31,03,15,-34.90
2022,01,31,03,16,-34.90
2022,01,31,03,17,-34.90
2022,01,31,03,18,-34.90
2022,01,31,03,19,-34.90
2022,01,31,03,20,-34.80
2022,01,31,03,21,-34.80
2022,01,31,03,22,-34.80
2022,01,31,03,23,-34.80
2022,01,31,03,24,-34.80
2022,01,31,03,25,-34.80
2022,01,31,03,26,-34.80
2022,01,31,03,27,-34.80
2022,01,31,03,28,-34.80
2022,01,31,03,29,-34.80
2022,01,31,03,30,-34.80
2022,01,31,03,31,-34.80
2022,01,31,03,32,-34.80
2022,01,31,03,33,-34.80
2022,01,31,03,34,-34.80
2022,01,31,03,35,-34.80
2022,01,31,03,36,-34.80
2022,01,31,03,37,-34.80
2022,01,31,03,38,-34.80
2022,01,31,03,39,-34.80
2022,01,31,03,40,-34.80
2022,01,31,03,41,-34.80
2022,01,31,03,42,-34.80
2022,01,31,03,43,-34.90
2022,01,31,03,44,-34.90
2022,01,31,03,45,-34.90
2022,01,31,03,46,-34.90
2022,01,31,03,47,-34.90
2022,01,31,03,48,-34.90
2022,01,31,03,49,-34.90
2022,01,31,03,50,-34.90
2022,01,31,03,51,-34.90
2022,01,31,03,52,-34.90
2022,01,31,03,53,-34.90
2022,01,31,03,54,-34.90
2022,01,31,03,55,-34.90
2022,01,31,03,56,-34.90
2022,01,31,03,57,-34.90
2022,01,31,03,58,-34.90
2022,01,31,03,59,-34.80
2022,01,31,04,00,-34.90
2022,01,31,04,01,-34.80
2022,01,31,04,02,-34.80
2022,01,31,04,03,-34.80
2022,01,31,04,04,-34.80
2022,01,31,04,05,-34.80
2022,01,31,04,06,-34.80
2022,01,31,04,07,-34.80
2022,01,31,04,08,-34.80
2022,01,31,04,09,-34.80
2022,01,31,04,10,-34.80
2022,01,31,04,11,-34.80
2022,01,31,04,12,-34.80
2022,01,31,04,13,-34.80
2022,01,31,04,14,-34.90
2022,01,31,04,15,-34.90
2022,01,31,04,16,-34.90
2022,01,31,04,17,-35.00
2022,01,31,04,18,-35.00
2022,01,31,04,19,-35.10
2022,01,31,04,20,-35.10
2022,01,31,04,21,-35.10
2022,01,31,04,22,-35.10
2022,01,31,04,23,-35.10
2022,01,31,04,24,-35.10
2022,01,31,04,25,-35.20
2022,01,31,04,26,-35.20
2022,01,31,04,27,-35.20
2022,01,31,04,28,-35.20
2022,01,31,04,29,-35.20
2022,01,31,04,30,-35.20
2022,01,31,04,31,-35.20
2022,01,31,04,32,-35.20
2022,01,31,04,33,-35.20
2022,01,31,04,34,-35.30
2022,01,31,04,35,-35.30
2022,01,31,04,36,-35.30
2022,01,31,04,37,-35.30
2022,01,31,04,38,-35.30
2022,01,31,04,39,-35.30
2022,01,31,04,40,-35.30
2022,01,31,04,41,-35.30
2022,01,31,04,42,-35.30
2022,01,31,04,43,-35.30
2022,01,31,04,44,-35.30
2022,01,31,04,45,-35.30
2022,01,31,04,46,-35.30
2022,01,31,04,47,-35.30
2022,01,31,04,48,-35.30
2022,01,31,04,49,-35.30
2022,01,31,04,50,-35.30
2022,01,31,04,51,-35.30
2022,01,31,04,52,-35.30
2022,01,31,04,53,-35.40
2022,01,31,04,54,-35.40
2022,01,31,04,55,-35.40
2022,01,31,04,56,-35.40
2022,01,31,04,57,-35.40
2022,01,31,04,58,-35.40
2022,01,31,04,59,-35.40
2022,01,31,05,00,-35.40
2022,01,31,05,01,-35.40
2022,01,31,05,02,-35.40
2022,01,31,05,03,-35.40
2022,01,31,05,19,-35.60
2022,01,31,05,20,-35.60
2022,01,31,05,21,-35.60
2022,01,31,05,22,-35.60
2022,01,31,05,23,-35.60
2022,01,31,05,24,-35.60
2022,01,31,05,25,-35.60
2022,01,31,05,26,-35.60
2022,01,31,05,27,-35.60
2022,01,31,05,28,-35.60
2022,01,31,05,29,-35.60
2022,01,31,05,30,-35.60
2022,01,31,05,31,-35.70
2022,01,31,05,32,-35.70
2022,01,31,05,33,-35.70
2022,01,31,05,34,-35.70
2022,01,31,05,35,-35.70
2022,01,31,05,36,-35.70
2022,01,31,05,37,-35.70
2022,01,31,05,38,-35.70
2022,01,31,05,39,-35.70
2022,01,31,05,40,-35.70
2022,01,31,05,41,-35.60
2022,01,31,05,42,-35.60
2022,01,31,05,43,-35.60
2022,01,31,05,44,-35.60
2022,01,31,05,45,-35.60
2022,01,31,05,46,-35.60
2022,01,31,05,47,-35.60
2022,01,31,05,48,-35.60
2022,01,31,05,49,-35.60
2022,01,31,05,50,-35.70
2022,01,31,05,51,-35.70
2022,01,31,05,52,-35.70
2022,01,31,05,53,-35.70
2022,01,31,05,54,-35.70
2022,01,31,05,55,-35.70
2022,01,31,05,56,-35.70
2022,01,31,05,57,-35.70
2022,01,31,05,58,-35.70
2022,01,31,05,59,-35.70
2022,01,31,06,00,-35.70
2022,01,31,06,01,-35.80
2022,01,31,06,02,-35.80
2022,01,31,06,03,-35.80
2022,01,31,06,04,-35.80
2022,01,31,06,05,-35.80
2022,01,31,06,06,-35.80
2022,01,31,06,07,-35.80
2022,01,31,06,08,-35.80
2022,01,31,06,09,-35.80
2022,01,31,06,10,-35.80
2022,01,31,06,11,-35.80
2022,01,31,06,12,-35.80
2022,01,31,06,13,-35.80
2022,01,31,06,14,-35.80
2022,01,31,06,15,-35.80
2022,01,31,06,16,-35.70
2022,01,31,06,17,-35.70
2022,01,31,06,18,-35.70
2022,01,31,06,19,-35.70
2022,01,31,06,20,-35.70
2022,01,31,06,21,-35.70
2022,01,31,06,22,-35.70
2022,01,31,06,23,-35.70
2022,01,31,06,24,-35.70
2022,01,31,06,25,-35.70
2022,01,31,06,26,-35.70
2022,01,31,06,27,-35.70
2022,01,31,06,28,-35.80
2022,01,31,06,29,-35.80
2022,01,31,06,30,-35.80
2022,01,31,06,31,-35.90
2022,01,31,06,32,-35.90
2022,01,31,06,33,-35.90
2022,01,31,06,34,-35.90
2022,01,31,06,35,-36.00
2022,01,31,06,36,-36.10
2022,01,31,06,37,-36.10
2022,01,31,06,38,-36.10
2022,01,31,06,39,-36.10
2022,01,31,06,40,-36.20
2022,01,31,06,41,-36.20
2022,01,31,06,42,-36.20
2022,01,31,06,43,-36.20
2022,01,31,06,44,-36.20
2022,01,31,06,45,-36.20
2022,01,31,06,46,-36.20
2022,01,31,06,47,-36.30
2022,01,31,06,48,-36.30
2022,01,31,06,49,-36.30
2022,01,31,06,50,-36.30
2022,01,31,06,51,-36.30
2022,01,31,06,52,-36.30
2022,01,31,06,53,-36.30
2022,01,31,06,54,-36.40
2022,01,31,06,55,-36.40
2022,01,31,06,56,-36.40
2022,01,31,06,57,-36.40
2022,01,31,06,58,-36.40
2022,01,31,06,59,-36.40
2022,01,31,07,00,-36.40
2022,01,31,07,01,-36.50
2022,01,31,07,02,-36.50
2022,01,31,07,03,-36.50
2022,01,31,07,04,-36.50
2022,01,31,07,05,-36.60
2022,01,31,07,06,-36.60
2022,01,31,07,07,-36.60
2022,01,31,07,08,-36.60
2022,01,31,07,09,-36.50
2022,01,31,07,10,-36.50
2022,01,31,07,11,-36.50
2022,01,31,07,12,-36.50
2022,01,31,07,13,-36.40
2022,01,31,07,14,-36.40
2022,01,31,07,15,-36.40
2022,01,31,07,16,-36.40
2022,01,31,07,17,-36.40
2022,01,31,07,18,-36.40
2022,01,31,07,19,-36.40
2022,01,31,07,20,-36.40
2022,01,31,07,21,-36.30
2022,01,31,07,22,-36.30
2022,01,31,07,23,-36.30
2022,01,31,07,24,-36.30
2022,01,31,07,25,-36.30
2022,01,31,07,26,-36.30
2022,01,31,07,27,-36.20
2022,01,31,07,28,-36.20
2022,01,31,07,29,-36.20
2022,01,31,07,30,-36.20
2022,01,31,07,31,-36.20
2022,01,31,07,32,-36.20
2022,01,31,07,33,-36.20
2022,01,31,07,34,-36.20
2022,01,31,07,35,-36.20
2022,01,31,07,36,-36.30
2022,01,31,07,37,-36.30
2022,01,31,07,38,-36.30
2022,01,31,07,39,-36.30
2022,01,31,07,40,-36.30
2022,01,31,07,41,-36.30
2022,01,31,07,42,-36.30
2022,01,31,07,43,-36.30
2022,01,31,07,44,-36.30
2022,01,31,07,45,-36.30
2022,01,31,07,46,-36.30
2022,01,31,07,47,-36.30
2022,01,31,07,48,-36.30
2022,01,31,07,49,-36.30
2022,01,31,07,50,-36.30
2022,01,31,07,51,-36.30
2022,01,31,07,52,-36.30
2022,01,31,07,53,-36.30
2022,01,31,07,54,-36.30
2022,01,31,07,55,-36.30
2022,01,31,07,56,-36.30
2022,01,31,07,57,-36.30
2022,01,31,07,58,-36.30
2022,01,31,07,59,-36.30
2022,01,31,08,00,-36.30
2022,01,31,08,01,-36.30
2022,01,31,08,02,-36.20
2022,01,31,08,03,-36.20
2022,01,31,08,04,-36.20
2022,01,31,08,05,-36.20
2022,01,31,08,06,-36.20
2022,01,31,08,07,-36.20
2022,01,31,08,08,-36.20
2022,01,31,08,09,-36.30
2022,01,31,08,10,-36.30
2022,01,31,08,11,-36.30
2022,01,31,08,12,-36.30
2022,01,31,08,13,-36.30
2022,01,31,08,14,-36.30
2022,01,31,08,15,-36.30
2022,01,31,08,16,-36.40
2022,01,31,08,17,-36.40
2022,01,31,08,18,-36.40
2022,01,31,08,19,-36.40
2022,01,31,08,20,-36.40
2022,01,31,08,21,-36.40
2022,01,31,08,22,-36.40
2022,01,31,08,23,-36.50
2022,01,31,08,24,-36.60
2022,01,31,08,25,-36.60
2022,01,31,08,26,-36.60
2022,01,31,08,27,-36.60
2022,01,31,08,28,-36.60
2022,01,31,08,29,-36.70
2022,01,31,08,30,-36.70
2022,01,31,08,31,-36.70
2022,01,31,08,32,-36.80
2022,01,31,08,33,-36.80
2022,01,31,08,34,-36.80
2022,01,31,08,35,-36.90
2022,01,31,08,36,-36.90
2022,01,31,08,37,-36.90
2022,01,31,08,38,-36.90
2022,01,31,08,39,-36.90
2022,01,31,08,40,-36.90
2022,01,31,08,41,-36.90
2022,01,31,08,42,-36.90
2022,01,31,08,43,-37.00
2022,01,31,08,44,-37.20
2022,01,31,08,45,-37.20
2022,01,31,08,46,-37.20
2022,01,31,08,47,-37.30
2022,01,31,08,48,-37.30
2022,01,31,08,49,-37.30
2022,01,31,08,50,-37.30
2022,01,31,08,51,-37.30
2022,01,31,08,52,-37.30
2022,01,31,08,53,-37.30
2022,01,31,08,54,-37.30
2022,01,31,08,55,-37.30
2022,01,31,08,56,-37.30
2022,01,31,08,57,-37.30
2022,01,31,08,58,-37.30
2022,01,31,08,59,-37.30
2022,01,31,09,00,-37.30
2022,01,31,09,01,-37.30
2022,01,31,09,02,-37.40
2022,01,31,09,03,-37.40
2022,01,31,09,04,-37.40
2022,01,31,09,05,-37.40
2022,01,31,09,06,-37.40
2022,01,31,09,07,-37.40
2022,01,31,09,08,-37.40
2022,01,31,09,09,-37.40
2022,01,31,09,10,-37.40
2022,01,31,09,11,-37.40
2022,01,31,09,12,-37.40
2022,01,31,09,13,-37.40
2022,01,31,09,14,-37.40
2022,01,31,09,15,-37.50
2022,01,31,09,16,-37.60
2022,01,31,09,17,-37.60
2022,01,31,09,18,-37.60
2022,01,31,09,19,-37.60
2022,01,31,09,20,-37.60
2022,01,31,09,21,-37.60
2022,01,31,09,22,-37.60
2022,01,31,09,23,-37.60
2022,01,31,09,24,-37.60
2022,01,31,09,25,-37.60
2022,01,31,09,26,-37.60
2022,01,31,09,27,-37.60
2022,01,31,09,28,-37.50
2022,01,31,09,29,-37.50
2022,01,31,09,30,-37.50
2022,01,31,09,31,-37.50
2022,01,31,09,32,-37.50
2022,01,31,09,33,-37.50
2022,01,31,09,34,-37.50
2022,01,31,09,35,-37.50
2022,01,31,09,36,-37.50
2022,01,31,09,37,-37.50
2022,01,31,09,38,-37.50
2022,01,31,09,39,-37.50
2022,01,31,09,40,-37.50
2022,01,31,09,41,-37.50
2022,01,31,09,42,-37.50
2022,01,31,09,58,-37.40
2022,01,31,09,59,-37.40
2022,01,31,10,00,-37.40
2022,01,31,10,01,-37.40
2022,01,31,10,02,-37.40
2022,01,31,10,03,-37.40
2022,01,31,10,04,-37.40
2022,01,31,10,05,-37.40
2022,01,31,10,06,-37.40
2022,01,31,10,07,-37.40
2022,01,31,10,08,-37.40
2022,01,31,11,49,-37.30
2022,01,31,11,50,-37.30
2022,01,31,11,51,-37.30
2022,01,31,11,52,-37.30
2022,01,31,11,53,-37.30
2022,01,31,11,54,-37.30
2022,01,31,11,55,-37.20
2022,01,31,11,56,-37.20
2022,01,31,11,57,-37.20
2022,01,31,11,58,-37.20
2022,01,31,11,59,-37.20
2022,01,31,12,00,-37.20
2022,01,31,12,01,-37.20
2022,01,31,12,02,-37.20
2022,01,31,12,03,-37.20
2022,01,31,12,04,-37.20
2022,01,31,12,05,-37.20
2022,01,31,12,06,-37.20
2022,01,31,12,07,-37.20
2022,01,31,12,08,-37.20
2022,01,31,12,09,-37.20
2022,01,31,12,10,-37.20
2022,01,31,12,11,-37.30
2022,01,31,12,12,-37.30
2022,01,31,12,13,-37.30
2022,01,31,12,14,-37.30
2022,01,31,12,15,-37.30
2022,01,31,12,16,-37.30
2022,01,31,12,17,-37.20
2022,01,31,12,18,-37.20
2022,01,31,12,19,-37.20
2022,01,31,12,20,-37.20
2022,01,31,12,21,-37.10
2022,01,31,12,22,-37.00
2022,01,31,12,23,-37.00
2022,01,31,12,24,-37.00
2022,01,31,12,25,-36.90
2022,01,31,12,26,-36.90
2022,01,31,12,27,-36.90
2022,01,31,12,28,-36.90
2022,01,31,12,29,-36.90
2022,01,31,12,30,-36.90
2022,01,31,12,31,-36.80
2022,01,31,12,32,-36.80
2022,01,31,12,33,-36.80
2022,01,31,12,34,-36.80
2022,01,31,12,35,-36.80
2022,01,31,12,36,-36.70
2022,01,31,12,37,-36.70
2022,01,31,12,38,-36.70
2022,01,31,12,39,-36.70
2022,01,31,12,40,-36.70
2022,01,31,12,41,-36.60
2022,01,31,12,42,-36.60
2022,01,31,12,43,-36.60
2022,01,31,12,44,-36.60
2022,01,31,12,45,-36.60
2022,01,31,12,46,-36.50
2022,01,31,12,47,-36.50
2022,01,31,12,48,-36.50
2022,01,31,12,49,-36.50
2022,01,31,12,50,-36.40
2022,01,31,12,51,-36.40
2022,01,31,12,52,-36.40
2022,01,31,12,53,-36.30
2022,01,31,12,54,-36.30
2022,01,31,12,55,-36.30
2022,01,31,12,56,-36.30
2022,01,31,12,57,-36.20
2022,01,31,12,58,-36.20
2022,01,31,12,59,-36.20
2022,01,31,13,00,-36.20
2022,01,31,13,01,-36.10
2022,01,31,13,02,-36.10
2022,01,31,13,03,-36.10
2022,01,31,13,04,-36.00
2022,01,31,13,05,-36.00
2022,01,31,13,06,-35.90
2022,01,31,13,07,-35.90
2022,01,31,13,08,-35.80
2022,01,31,13,09,-35.80
2022,01,31,13,10,-35.80
2022,01,31,13,11,-35.70
2022,01,31,13,12,-35.70
2022,01,31,13,13,-35.70
2022,01,31,13,14,-35.70
2022,01,31,13,15,-35.70
2022,01,31,13,16,-35.60
2022,01,31,13,17,-35.60
2022,01,31,13,18,-35.50
2022,01,31,13,19,-35.40
2022,01,31,13,20,-35.40
2022,01,31,13,21,-35.30
2022,01,31,13,22,-35.30
2022,01,31,13,23,-35.30
2022,01,31,13,24,-35.30
2022,01,31,13,25,-35.20
2022,01,31,13,26,-35.20
2022,01,31,13,27,-35.20
2022,01,31,13,28,-35.20
2022,01,31,13,29,-35.10
2022,01,31,13,30,-35.10
2022,01,31,13,31,-35.10
2022,01,31,13,32,-35.10
2022,01,31,13,33,-35.10
2022,01,31,13,34,-35.10
2022,01,31,13,35,-35.10
2022,01,31,13,36,-35.10
2022,01,31,13,37,-35.10
2022,01,31,13,38,-35.10
2022,01,31,13,39,-35.10
2022,01,31,13,40,-35.10
2022,01,31,13,41,-35.20
2022,01,31,13,42,-35.20
2022,01,31,13,43,-35.20
2022,01,31,13,44,-35.20
2022,01,31,13,45,-35.10
2022,01,31,13,46,-35.10
2022,01,31,13,47,-35.10
2022,01,31,13,48,-35.10
2022,01,31,13,49,-35.00
2022,01,31,13,50,-35.00
2022,01,31,13,51,-34.90
2022,01,31,13,52,-34.90
2022,01,31,13,53,-34.80
2022,01,31,13,54,-34.80
2022,01,31,13,55,-34.80
2022,01,31,13,56,-34.70
2022,01,31,13,57,-34.70
2022,01,31,13,58,-34.70
2022,01,31,13,59,-34.60
2022,01,31,14,00,-34.60
2022,01,31,14,01,-34.60
2022,01,31,14,02,-34.50
2022,01,31,14,03,-34.50
2022,01,31,14,04,-34.50
2022,01,31,14,05,-34.40
2022,01,31,14,06,-34.40
2022,01,31,14,07,-34.40
2022,01,31,14,08,-34.30
2022,01,31,14,09,-34.30
2022,01,31,14,10,-34.30
2022,01,31,14,11,-34.30
2022,01,31,14,12,-34.20
2022,01,31,14,13,-34.20
2022,01,31,14,14,-34.20
2022,01,31,14,15,-34.20
2022,01,31,14,16,-34.20
2022,01,31,14,17,-34.10
2022,01,31,14,18,-34.10
2022,01,31,14,19,-34.10
2022,01,31,14,20,-34.10
2022,01,31,14,21,-34.10
2022,01,31,14,22,-34.10
2022,01,31,14,23,-34.10
2022,01,31,14,24,-34.10
2022,01,31,14,25,-34.10
2022,01,31,14,26,-34.10
2022,01,31,14,27,-34.10
2022,01,31,14,28,-34.10
2022,01,31,14,29,-34.10
2022,01,31,14,30,-34.10
2022,01,31,14,31,-34.10
2022,01,31,14,32,-34.10
2022,01,31,14,33,-34.10
2022,01,31,14,34,-34.10
2022,01,31,14,35,-34.00
2022,01,31,14,36,-34.00
2022,01,31,14,37,-33.90
2022,01,31,14,38,-33.90
2022,01,31,14,39,-33.90
2022,01,31,14,40,-33.90
2022,01,31,14,41,-33.90
2022,01,31,14,42,-33.80
2022,01,31,14,43,-33.80
2022,01,31,14,44,-33.80
2022,01,31,14,45,-33.80
2022,01,31,14,46,-33.70
2022,01,31,14,47,-33.70
2022,01,31,14,48,-33.70
2022,01,31,14,49,-33.70
2022,01,31,14,50,-33.70
2022,01,31,14,51,-33.70
2022,01,31,14,52,-33.70
2022,01,31,14,53,-33.70
2022,01,31,14,54,-33.80
2022,01,31,14,55,-33.80
2022,01,31,14,56,-33.80
2022,01,31,14,57,-33.90
2022,01,31,14,58,-33.90
2022,01,31,14,59,-33.90
2022,01,31,15,00,-33.90
2022,01,31,15,01,-33.90
2022,01,31,15,02,-33.90
2022,01,31,15,03,-33.90
2022,01,31,15,04,-33.90
2022,01,31,15,05,-33.90
2022,01,31,15,06,-33.80
2022,01,31,15,07,-33.80
2022,01,31,15,08,-33.80
2022,01,31,15,09,-33.80
2022,01,31,15,10,-33.70
2022,01,31,15,11,-33.70
2022,01,31,15,12,-33.70
2022,01,31,15,13,-33.70
2022,01,31,15,14,-33.70
2022,01,31,15,15,-33.70
2022,01,31,15,16,-33.70
2022,01,31,15,17,-33.70
2022,01,31,15,18,-33.70
2022,01,31,15,19,-33.70
2022,01,31,15,20,-33.70
2022,01,31,15,21,-33.70
2022,01,31,15,22,-33.70
2022,01,31,15,23,-33.70
2022,01,31,15,24,-33.70
2022,01,31,15,25,-33.80
2022,01,31,15,26,-33.80
2022,01,31,15,27,-33.80
2022,01,31,15,28,-33.80
2022,01,31,15,29,-33.80
2022,01,31,15,30,-33.80
2022,01,31,15,31,-33.80
2022,01,31,15,32,-33.90
2022,01,31,15,33,-33.90
2022,01,31,15,34,-34.00
2022,01,31,15,35,-34.00
2022,01,31,15,36,-34.10
2022,01,31,15,37,-34.20
2022,01,31,15,38,-34.20
2022,01,31,15,39,-34.30
2022,01,31,15,40,-34.40
2022,01,31,15,41,-34.40
2022,01,31,15,42,-34.50
2022,01,31,15,43,-34.50
2022,01,31,15,44,-34.60
2022,01,31,15,45,-34.60
2022,01,31,15,46,-34.70
2022,01,31,15,47,-34.80
2022,01,31,15,48,-34.90
2022,01,31,15,49,-35.00
2022,01,31,15,50,-35.00
2022,01,31,15,51,-35.10
2022,01,31,15,52,-35.20
2022,01,31,15,53,-35.20
2022,01,31,15,54,-35.30
2022,01,31,15,55,-35.30
2022,01,31,15,56,-35.30
2022,01,31,15,57,-35.30
2022,01,31,15,58,-35.30
2022,01,31,15,59,-35.30
2022,01,31,16,00,-35.30
2022,01,31,16,01,-35.30
2022,01,31,16,02,-35.30
2022,01,31,16,03,-35.30
2022,01,31,16,04,-35.30
2022,01,31,16,05,-35.30
2022,01,31,16,06,-35.20
2022,01,31,16,07,-35.20
2022,01,31,16,08,-35.20
2022,01,31,16,09,-35.20
2022,01,31,16,10,-35.10
2022,01,31,16,11,-35.10
2022,01,31,16,12,-35.10
2022,01,31,16,13,-35.10
2022,01,31,16,14,-35.10
2022,01,31,16,15,-35.00
2022,01,31,16,16,-35.00
2022,01,31,16,17,-35.00
2022,01,31,16,18,-35.00
2022,01,31,16,19,-35.00
2022,01,31,16,20,-35.00
2022,01,31,16,21,-35.00
2022,01,31,16,22,-35.10
2022,01,31,16,23,-35.10
2022,01,31,16,24,-35.10
2022,01,31,16,25,-35.20
2022,01,31,16,26,-35.20
2022,01,31,16,27,-35.20
2022,01,31,16,28,-35.30
2022,01,31,16,29,-35.30
2022,01,31,16,30,-35.30
2022,01,31,16,31,-35.30
2022,01,31,16,32,-35.40
2022,01,31,16,33,-35.40
2022,01,31,16,34,-35.40
2022,01,31,16,35,-35.50
2022,01,31,16,36,-35.50
2022,01,31,16,37,-35.50
2022,01,31,16,38,-35.60
2022,01,31,16,39,-35.60
2022,01,31,16,40,-35.60
2022,01,31,16,41,-35.60
2022,01,31,16,42,-35.60
2022,01,31,16,43,-35.60
2022,01,31,16,44,-35.60
2022,01,31,16,45,-35.60
2022,01,31,16,46,-35.60
2022,01,31,16,47,-35.60
2022,01,31,16,48,-35.60
2022,01,31,16,49,-35.60
2022,01,31,16,50,-35.70
2022,01,31,16,51,-35.70
2022,01,31,16,52,-35.70
2022,01,31,16,53,-35.70
2022,01,31,16,54,-35.70
2022,01,31,16,55,-35.70
2022,01,31,16,56,-35.70
2022,01,31,16,57,-35.70
2022,01,31,16,58,-35.70
2022,01,31,16,59,-35.70
2022,01,31,17,00,-35.70
2022,01,31,17,01,-35.70
2022,01,31,17,02,-35.70
2022,01,31,17,03,-35.70
2022,01,31,17,04,-35.70
2022,01,31,17,05,-35.70
2022,01,31,17,06,-35.70
2022,01,31,17,07,-35.70
2022,01,31,17,08,-35.70
2022,01,31,17,09,-35.70
2022,01,31,17,10,-35.70
2022,01,31,17,11,-35.70
2022,01,31,17,12,-35.70
2022,01,31,17,13,-35.70
2022,01,31,17,14,-35.70
2022,01,31,17,15,-35.70
2022,01,31,17,16,-35.70
2022,01,31,17,17,-35.70
2022,01,31,17,18,-35.70
2022,01,31,17,19,-35.70
2022,01,31,17,20,-35.70
2022,01,31,17,21,-35.70
2022,01,31,17,22,-35.70
2022,01,31,17,23,-35.70
2022,01,31,17,24,-35.70
2022,01,31,17,25,-35.70
2022,01,31,17,26,-35.70
2022,01,31,17,27,-35.70
2022,01,31,17,28,-35.70
2022,01,31,17,29,-35.70
2022,01,31,17,30,-35.70
2022,01,31,17,31,-35.70
2022,01,31,17,32,-35.80
2022,01,31,17,33,-35.80
2022,01,31,17,34,-35.80
2022,01,31,17,35,-35.80
2022,01,31,17,36,-35.80
2022,01,31,17,37,-35.90
2022,01,31,17,38,-35.90
2022,01,31,17,39,-35.90
2022,01,31,17,40,-36.00
2022,01,31,17,41,-36.00
2022,01,31,17,42,-36.00
2022,01,31,17,43,-36.00
2022,01,31,17,44,-36.10
2022,01,31,17,45,-36.10
2022,01,31,17,46,-36.10
2022,01,31,17,47,-36.10
2022,01,31,17,48,-36.10
2022,01,31,17,49,-36.10
2022,01,31,17,50,-36.20
2022,01,31,17,51,-36.20
2022,01,31,17,52,-36.20
2022,01,31,17,53,-36.20
2022,01,31,17,54,-36.20
2022,01,31,17,55,-36.20
2022,01,31,17,56,-36.20
2022,01,31,17,57,-36.20
2022,01,31,17,58,-36.20
2022,01,31,17,59,-36.20
2022,01,31,18,00,-36.20
2022,01,31,18,01,-36.20
2022,01,31,18,02,-36.20
2022,01,31,18,03,-36.20
2022,01,31,18,04,-36.20
2022,01,31,18,05,-36.20
2022,01,31,18,06,-36.20
2022,01,31,18,07,-36.20
2022,01,31,18,08,-36.20
2022,01,31,18,09,-36.10
2022,01,31,18,10,-36.10
2022,01,31,18,11,-36.10
2022,01,31,18,12,-36.10
2022,01,31,18,13,-36.10
2022,01,31,18,14,-36.10
2022,01,31,18,15,-36.10
2022,01,31,18,16,-36.10
2022,01,31,18,17,-36.10
2022,01,31,18,18,-36.10
2022,01,31,18,19,-36.10
2022,01,31,18,20,-36.10
2022,01,31,18,21,-36.10
2022,01,31,18,22,-36.20
2022,01,31,18,23,-36.20
2022,01,31,18,24,-36.20
2022,01,31,18,25,-36.20
2022,01,31,18,26,-36.20
2022,01,31,18,27,-36.20
2022,01,31,18,28,-36.30
2022,01,31,18,29,-36.30
2022,01,31,18,30,-36.30
2022,01,31,18,31,-36.30
2022,01,31,18,32,-36.30
2022,01,31,18,33,-36.30
2022,01,31,18,34,-36.30
2022,01,31,18,35,-36.30
2022,01,31,18,36,-36.30
2022,01,31,18,37,-36.30
2022,01,31,18,38,-36.30
2022,01,31,18,39,-36.40
2022,01,31,18,40,-36.40
2022,01,31,18,41,-36.40
2022,01,31,18,42,-36.40
2022,01,31,18,43,-36.40
2022,01,31,18,44,-36.40
2022,01,31,18,45,-36.40
2022,01,31,18,46,-36.30
2022,01,31,18,47,-36.30
2022,01,31,18,48,-36.30
2022,01,31,18,49,-36.30
2022,01,31,18,50,-36.30
2022,01,31,18,51,-36.30
2022,01,31,18,52,-36.30
2022,01,31,18,53,-36.30
2022,01,31,18,54,-36.30
2022,01,31,18,55,-36.30
2022,01,31,18,56,-36.30
2022,01,31,18,57,-36.30
2022,01,31,18,58,-36.30
2022,01,31,18,59,-36.30
2022,01,31,19,00,-36.30
2022,01,31,19,01,-36.30
2022,01,31,19,02,-36.30
2022,01,31,19,03,-36.30
2022,01,31,19,04,-36.30
2022,01,31,19,05,-36.30
2022,01,31,19,06,-36.30
2022,01,31,19,07,-36.30
2022,01,31,19,08,-36.30
2022,01,31,19,09,-36.30
2022,01,31,19,10,-36.30
2022,01,31,19,11,-36.30
2022,01,31,19,12,-36.30
2022,01,31,19,13,-36.30
2022,01,31,19,14,-36.30
2022,01,31,19,15,-36.30
2022,01,31,19,16,-36.30
2022,01,31,19,17,-36.30
2022,01,31,19,18,-36.30
2022,01,31,19,19,-36.30
2022,01,31,19,20,-36.30
2022,01,31,19,21,-36.30
2022,01,31,19,22,-36.30
2022,01,31,19,23,-36.30
2022,01,31,19,24,-36.30
2022,01,31,19,25,-36.30
2022,01,31,19,26,-36.30
2022,01,31,19,27,-36.30
2022,01,31,19,28,-36.20
2022,01,31,19,29,-36.20
2022,01,31,19,30,-36.20
2022,01,31,19,31,-36.10
2022,01,31,19,32,-36.10
2022,01,31,19,33,-36.10
2022,01,31,19,34,-36.10
2022,01,31,19,35,-36.10
2022,01,31,19,36,-36.10